Location: Newark
(45.5000°N, 11.4167°E)
Time: 22:32:12
(UTC+00:00)

A-11 Canister half - Pass Details

Date: 28 August 2019
Orbit: 1514 x 1686 km, 47.2° (Epoch: 14 September)

Event Time Altitude Azimuth Distance (km) Brightness Sun altitude
Rises 13:42:25 0° 193° (SSW) 4,640 12.1 42.4°
Reaches altitude 10° 13:46:07 10° 180° (S) 3,667 11.5 41.9°
Maximum altitude 13:53:07 25° 130° (SE) 2,709 10.4 40.9°
Drops below altitude 10° 14:00:14 10° 80° (E) 3,743 10.7 39.8°
Sets 14:04:01 0° 69° (ENE) 4,757 11.1 39.2°
